Agassiz, British Columbia

5:43 PM PDT on August 19, 2017 (GMT -0700)
Agassiz

Weather History for CWZA - December, 2012

Change the Weather History Date:

Monday, December 24, 2012

  Actual Average Record
Temperature  
Mean Temperature 32 °F -  
Max Temperature 34 °F 41 °F - ()
Min Temperature 30 °F 31 °F - ()
Degree Days  
Heating Degree Days 33    
Moisture  
Dew Point 26 °F    
Average Humidity 79    
Maximum Humidity 93    
Minimum Humidity 65    
Precipitation  
Precipitation 0.04 in 0.30 in - ()
Sea Level Pressure  
Sea Level Pressure 30.08 in    
Wind  
Wind Speed 15 mph ()    
Max Wind Speed 23 mph    
Max Gust Speed 29 mph    
T = Trace of Precipitation, MM = Missing Value Source: Averaged Metar Reports

Daily Weather History Graph

Daily Weather History Graph

Search for Another Location

Airport or City:

Trip Planner

Search our weather history database for the weather conditions in past years. The results will help you decide how hot, cold, wet, or windy it might be!

Date:

Astronomy

Dec. 24, 2012 Rise Set
Actual Time 8:01 AM PST 4:13 PM PST
Civil Twilight 7:23 AM PST 4:50 PM PST
Nautical Twilight 6:42 AM PST 5:31 PM PST
Astronomical Twilight 6:03 AM PST 6:10 PM PST
Moon 1:49 PM PST (12/24) 4:37 AM PST (12/24)
Length of Visible Light 9h 27m
Length of Day
8h 11m
Waxing Gibbous, 89% of the Moon is Illuminated
Dec 24
Waxing Gibbous
Dec 28
Full
Jan 4
Last Quarter
Jan 11
New
Jan 18
First Quarter

Hourly Weather History & Observations

Time (PST) Temp. Windchill Dew Point Humidity Pressure Visibility Wind Dir Wind Speed Gust Speed Precip Events Conditions
12:00 AM 32.9 °F 22.0 °F 29.8 °F 88% 29.82 in - NE 17.3 mph 24.2 mph 0.02 in   Unknown
1:00 AM 31.6 °F 20.0 °F 29.8 °F 93% 29.85 in - NE 18.4 mph 24.2 mph 0.02 in   Unknown
2:00 AM 32.0 °F 20.8 °F 29.5 °F 90% 29.88 in - NE 17.3 mph 23.0 mph N/A   Unknown
3:00 AM 31.6 °F 21.2 °F 28.9 °F 90% 29.91 in - NE 15.0 mph - N/A   Unknown
4:00 AM 32 °F - 29 °F 82% 29.95 in - NE 12.7 mph - -  
4:00 AM 31.6 °F 22.1 °F 28.6 °F 88% 29.95 in - NE 12.7 mph 18.4 mph N/A   Unknown
5:00 AM 31.5 °F 25.8 °F 28.9 °F 90% 29.98 in - NE 5.8 mph - N/A   Unknown
6:00 AM 30.7 °F 18.8 °F 28.4 °F 91% 30.00 in - NE 18.4 mph 26.5 mph 0.01 in   Unknown
7:00 AM 30.9 °F 19.1 °F 26.6 °F 84% 30.03 in - NE 18.4 mph 26.5 mph N/A   Unknown
8:00 AM 31.3 °F 19.9 °F 26.8 °F 83% 30.06 in - NE 17.3 mph 25.3 mph N/A   Unknown
9:00 AM 31.1 °F 19.7 °F 26.8 °F 84% 30.10 in - NE 17.3 mph 25.3 mph N/A   Unknown
10:00 AM 31 °F - 26 °F 74% 30.12 in - NE 23.0 mph - -  
10:00 AM 30.7 °F 17.5 °F 25.9 °F 82% 30.12 in - NE 23.0 mph 28.8 mph N/A   Unknown
11:00 AM 31.5 °F 19.8 °F 24.4 °F 75% 30.14 in - NE 18.4 mph 27.6 mph N/A   Unknown
12:00 PM 31.8 °F 20.6 °F 24.6 °F 75% 30.15 in - NE 17.3 mph - N/A   Unknown
1:00 PM 32.9 °F 22.4 °F 25.0 °F 73% 30.17 in - NE 16.1 mph 24.2 mph N/A   Unknown
2:00 PM 31.6 °F 21.2 °F 23.7 °F 73% 30.19 in - NE 15.0 mph 24.2 mph N/A   Unknown
3:00 PM 31.6 °F 20.7 °F 25.3 °F 78% 30.20 in - NE 16.1 mph 25.3 mph N/A   Unknown
4:00 PM 32 °F - 25 °F 65% 30.19 in - NE 23.0 mph - -  
4:00 PM 31.8 °F 19.0 °F 24.8 °F 75% 30.19 in - NE 23.0 mph - N/A   Unknown
5:00 PM 32.0 °F 19.8 °F 24.4 °F 74% 30.19 in - NE 20.7 mph 28.8 mph N/A   Unknown
6:00 PM 31.6 °F 23.1 °F 24.8 °F 76% 30.19 in - NE 10.4 mph 18.4 mph N/A   Unknown
7:00 PM 31.8 °F 20.2 °F 24.8 °F 75% 30.17 in - NE 18.4 mph - N/A   Unknown
8:00 PM 31.8 °F 19.9 °F 24.4 °F 74% 30.16 in - NE 19.6 mph - N/A   Unknown
9:00 PM 31.5 °F 20.9 °F 24.4 °F 75% 30.13 in - NE 15.0 mph 23.0 mph N/A   Unknown
10:00 PM 31 °F - 24 °F 65% 30.15 in - NNE 11.5 mph - -  
10:00 PM 31.1 °F 21.9 °F 23.7 °F 74% 30.15 in - NNE 11.5 mph 20.7 mph N/A   Unknown
11:00 PM 31.1 °F 20.1 °F 23.4 °F 73% 30.14 in - NE 16.1 mph 23.0 mph N/A   Unknown